[[{"header":{"parameterUnit":"m.s-1","parameterCategory":1,"la1":30.2991,"la2":30.254,"lo1":-89.0895,"lo2":-89.0444,"dy":0.0017,"dx":0.0017,"nx":28,"ny":28,"refTime":"2023-09-01T21:00:00:Z","depth":0,"parameterNumber":2,"parameterNumberName":"U-component_of_WINDS"},"data":[0,0,0,0,0,0,0,0,0,0,0,0,0,0,0,0,0,0,0,0,0,0,0,0,0,0,0,0,0,0,0,0,0,0,0,0,0,0,0,0,0,0,0,0,0,0,0,0,0,0,0,0,0,0,0,0,0,0,-1.9797,-1.9796,0,-1.9669,-1.9668,-1.9666,-1.9615,-1.9615,-1.9615,-1.9615,-1.9483,-1.9479,-1.9476,0,0,0,0,0,0,0,0,0,0,0,0,0,-1.9995,-1.9992,-1.9797,-1.9796,-1.9794,-1.967,-1.9668,-1.9666,-1.9615,-1.9615,-1.9615,-1.9616,-1.9484,-1.948,-1.9475,0,0,0,0,0,0,0,0,0,0,0,0,0,-1.9893,-1.9991,-1.9797,-1.9753,-1.9748,-1.967,-1.9668,-1.9666,-1.9614,-1.9615,-1.9615,-1.9616,-1.9486,-1.948,-1.9475,-1.9431,0,0,-1.9457,-1.9455,0,0,0,0,0,0,0,0,-1.9898,-1.9885,-1.9761,-1.9756,-1.975,-1.9658,-1.9689,-1.9587,-1.9614,-1.9665,-1.9616,-1.9616,-1.9541,-1.9531,-1.9506,-1.9424,-1.9419,-1.9457,-1.9453,-1.9451,-1.9449,0,0,0,0,0,0,0,-1.9906,-1.989,-1.9746,-1.976,-1.9753,-1.9739,-1.9725,-1.9669,-1.9602,-1.9661,-1.9657,-1.9642,-1.9538,-1.9511,-1.9502,-1.9417,-1.9457,-1.9452,-1.9448,-1.9446,-1.9293,-1.9292,0,0,0,0,0,0,-1.992,-1.9897,-1.9751,-1.9743,-1.9827,-1.9736,-1.972,-1.9687,-1.9603,-1.959,-1.9642,-1.964,-1.9521,-1.9509,-1.9497,-1.944,-1.9451,-1.9446,-1.9442,-1.9293,-1.9292,-1.9292,0,0,0,0,0,0,-1.9925,-1.9908,-1.9756,-1.9819,-1.9798,-1.9732,-1.9696,-1.9685,-1.9658,-1.9588,-1.9576,-1.9627,-1.9521,-1.9505,-1.9448,-1.9434,-1.9443,-1.9438,-1.9294,-1.9293,-1.9292,-1.9324,0,0,0,0,0,0,-1.9931,-1.991,-1.9892,-1.9819,-1.9795,-1.9708,-1.9695,-1.9682,-1.9648,-1.9645,-1.9571,-1.956,-1.952,-1.9456,-1.9442,-1.9427,-1.9433,-1.9295,-1.9294,-1.9292,-1.9324,-1.9325,-1.9325,0,0,0,0,0,-1.9938,-1.9906,-1.9892,-1.9874,-1.9772,-1.9708,-1.9694,-1.965,-1.9648,-1.9629,-1.9585,-1.9562,-1.9439,-1.9451,-1.9434,-1.9417,-1.9295,-1.9294,-1.9292,-1.9324,-1.9324,-1.9325,0,0,0,0,0,0,-1.9979,-1.9896,-1.9879,-1.9822,-1.9773,-1.9699,-1.9675,-1.9652,-1.9601,-1.96,-1.9547,-1.9531,-1.9477,-1.9441,-1.9457,-1.937,-1.9365,-1.936,-1.9395,-1.9395,-1.9395,-1.9404,-1.9429,0,0,0,0,0,-1.9982,-1.9937,-1.9866,-1.9823,-1.98,-1.9742,-1.9712,-1.9682,-1.9628,-1.9607,-1.9558,-1.9506,-1.9456,-1.9424,-1.9373,-1.9319,-1.9302,-1.9299,-1.93,-1.93,-1.9296,-1.9265,-1.9262,-1.9287,-1.9287,-1.9287,0,0,-1.9987,-1.9936,-1.991,-1.9831,-1.9788,-1.9743,-1.9724,-1.9677,-1.9642,-1.9599,-1.9542,-1.9504,-1.9443,-1.9387,-1.936,-1.9356,-1.9286,-1.9299,-1.93,-1.9295,-1.9263,-1.9261,-1.9259,-1.9286,-1.9286,-1.9286,0,0,-1.9972,-1.9929,-1.9889,-1.9847,-1.9784,-1.9746,-1.9737,-1.9666,-1.964,-1.9582,-1.9549,-1.9507,-1.9421,-1.9379,-1.9346,-1.9317,-1.9293,-1.9302,-1.9303,-1.9273,-1.9271,-1.9269,-1.9258,-1.9255,-1.9298,-1.9298,-1.9298,0,-1.9986,-1.9916,-1.987,-1.9824,-1.979,-1.9751,-1.9709,-1.9671,-1.9594,-1.9571,-1.9568,-1.946,-1.9416,-1.9349,-1.9342,-1.9317,-1.9304,-1.9309,-1.9275,-1.9273,-1.927,-1.9259,-1.9255,-1.93,-1.93,-1.9299,-1.9299,0,-1.9936,-1.9888,-1.9862,-1.979,-1.9753,-1.971,-1.9657,-1.9625,-1.9599,-1.9562,-1.9503,-1.9449,-1.9387,-1.9369,-1.9343,-1.9299,-1.9298,-1.9286,-1.928,-1.927,-1.9258,-1.9254,-1.9302,-1.9301,-1.9301,-1.93,0,0,-1.9942,-1.9846,-1.9837,-1.9804,-1.9732,-1.9694,-1.9649,-1.9589,-1.9562,-1.9511,-1.9471,-1.94,-1.9389,-1.9352,-1.9321,-1.9295,-1.9274,-1.9285,-1.9283,-1.9284,-1.9221,-1.923,-1.9225,-1.9259,-1.9258,-1.9257,-1.9226,0,-1.9917,-1.9834,-1.9792,-1.9727,-1.9682,-1.9645,-1.9605,-1.9557,-1.9521,-1.9477,-1.9437,-1.9387,-1.9376,-1.9354,-1.9326,-1.9282,-1.926,-1.9284,-1.922,-1.9219,-1.9235,-1.9219,-1.9228,-1.9201,-1.9221,-1.922,-1.922,0,-1.9876,-1.9826,-1.9757,-1.969,-1.9669,-1.9635,-1.9576,-1.9535,-1.948,-1.9455,-1.9415,-1.9384,-1.9335,-1.9334,-1.9265,-1.9282,-1.9254,-1.9229,-1.9227,-1.9218,-1.9218,-1.9209,-1.9192,-1.9187,-1.9212,-1.9213,-1.9213,0,-1.9886,-1.9802,-1.9749,-1.9722,-1.9643,-1.962,-1.9586,-1.953,-1.9497,-1.9446,-1.9424,-1.9368,-1.9337,-1.9295,-1.925,-1.9254,-1.9186,-1.9181,-1.9163,-1.9164,-1.9149,-1.915,-1.9126,-1.9133,-1.9133,-1.9133,-1.9134,0,-1.9862,-1.9821,-1.9753,-1.972,-1.9673,-1.9626,-1.9581,-1.9544,-1.9495,-1.9455,-1.9419,-1.9382,-1.9326,-1.9282,-1.9247,-1.9195,-1.9181,-1.916,-1.915,-1.9162,-1.9164,-1.9141,-1.9142,-1.9132,-1.9133,-1.9133,-1.9133,0,-1.9865,-1.9818,-1.9758,-1.9689,-1.967,-1.9638,-1.9579,-1.9546,-1.9509,-1.9458,-1.9443,-1.9385,-1.9331,-1.9283,-1.9211,-1.9188,-1.9134,-1.9123,-1.9153,-1.9148,-1.9132,-1.9134,-1.9091,-1.9082,-1.9097,-1.9097,-1.9097,0,-1.9851,-1.9819,-1.9746,-1.9717,-1.9684,-1.9637,-1.9603,-1.9555,-1.9521,-1.9456,-1.9431,-1.9374,-1.9327,-1.9242,-1.9193,-1.9138,-1.9125,-1.9114,-1.9117,-1.9129,-1.9124,-1.9126,-1.9122,-1.9114,-1.9114,-1.9114,-1.9114,0,-1.9832,-1.9811,-1.9763,-1.9708,-1.9668,-1.9622,-1.9575,-1.9553,-1.9497,-1.946,-1.9405,-1.9368,-1.9296,-1.924,-1.918,-1.9144,-1.9119,-1.9114,-1.9107,-1.9117,-1.9135,-1.9124,-1.9152,-1.9115,-1.9115,-1.9115,-1.9115,-1.9115,-1.9826,-1.9795,-1.9739,-1.9687,-1.9647,-1.9604,-1.957,-1.9528,-1.9482,-1.9419,-1.9394,-1.9338,-1.9283,-1.92,-1.9165,-1.912,-1.9115,-1.9105,-1.9102,-1.91,-1.9101,-1.9144,-1.9109,-1.9109,-1.9109,-1.9108,-1.9108,0,-1.9804,-1.9767,-1.972,-1.9655,-1.9614,-1.9595,-1.9542,-1.9509,-1.946,-1.9412,-1.9366,-1.9302,-1.9248,-1.9195,-1.9139,-1.9113,-1.91,-1.9099,-1.91,-1.9092,-1.9109,-1.9121,-1.9111,-1.9111,-1.9111,-1.9111,-1.9111,-1.9111,-1.9788,-1.9735,-1.9707,-1.9634,-1.9596,-1.9541,-1.9512,-1.9472,-1.9433,-1.9363,-1.9319,-1.9285,-1.9234,-1.9174,-1.9123,-1.9109,-1.9089,-1.9092,-1.9074,-1.9091,-1.9091,-1.9091,-1.9102,-1.9088,-1.9088,-1.9061,-1.906,-1.906]},{"header":{"parameterUnit":"m.s-1","parameterCategory":1,"la1":30.2991,"la2":30.254,"lo1":-89.0895,"lo2":-89.0444,"dy":0.0017,"dx":0.0017,"nx":28,"ny":28,"refTime":"2023-09-01T21:00:00:Z","depth":0,"parameterNumber":3,"parameterNumberName":"V-component_of_WINDS"},"data":[0,0,0,0,0,0,0,0,0,0,0,0,0,0,0,0,0,0,0,0,0,0,0,0,0,0,0,0,0,0,0,0,0,0,0,0,0,0,0,0,0,0,0,0,0,0,0,0,0,0,0,0,0,0,0,0,0,0,3.8553,3.8553,0,3.8585,3.8585,3.8585,3.8584,3.8584,3.8583,3.8583,3.8611,3.8612,3.8614,0,0,0,0,0,0,0,0,0,0,0,0,0,3.8486,3.8487,3.8553,3.8553,3.8553,3.8585,3.8585,3.8585,3.8584,3.8584,3.8583,3.8583,3.8611,3.8612,3.8614,0,0,0,0,0,0,0,0,0,0,0,0,0,3.8516,3.8488,3.8553,3.8557,3.8557,3.8585,3.8585,3.8586,3.8584,3.8584,3.8583,3.8582,3.861,3.8612,3.8614,3.8638,0,0,3.8619,3.862,0,0,0,0,0,0,0,0,3.8515,3.8519,3.8556,3.8556,3.8557,3.858,3.8572,3.8603,3.8584,3.8574,3.8583,3.8582,3.8601,3.8604,3.8611,3.8639,3.864,3.8619,3.862,3.8621,3.8622,0,0,0,0,0,0,0,3.8512,3.8517,3.8565,3.8556,3.8557,3.8556,3.8559,3.8578,3.8591,3.8575,3.8575,3.8579,3.8601,3.8609,3.8611,3.8641,3.8619,3.8621,3.8622,3.8623,3.869,3.8691,0,0,0,0,0,0,3.851,3.8516,3.8564,3.8566,3.8534,3.8557,3.8561,3.8573,3.859,3.8593,3.8579,3.8579,3.8606,3.8609,3.8612,3.8641,3.8621,3.8623,3.8624,3.8689,3.869,3.8691,0,0,0,0,0,0,3.8509,3.8514,3.8563,3.8541,3.8547,3.8559,3.8572,3.8574,3.8582,3.8594,3.8596,3.8585,3.8606,3.861,3.8632,3.8642,3.8624,3.8625,3.8688,3.8689,3.869,3.8699,0,0,0,0,0,0,3.8507,3.8514,3.8524,3.8541,3.8548,3.8583,3.8573,3.8575,3.8586,3.8585,3.86,3.8602,3.8606,3.8629,3.8633,3.8644,3.8627,3.8687,3.8689,3.869,3.8698,3.87,3.8702,0,0,0,0,0,3.8504,3.8524,3.8525,3.853,3.8561,3.8583,3.8587,3.8593,3.8586,3.8596,3.8604,3.8601,3.8641,3.8631,3.8636,3.8648,3.8687,3.8688,3.869,3.8697,3.87,3.8702,0,0,0,0,0,0,3.8506,3.8527,3.8527,3.8553,3.8567,3.8583,3.8595,3.8596,3.861,3.8609,3.8614,3.8617,3.8639,3.8645,3.8635,3.8672,3.8663,3.8665,3.8666,3.8669,3.8671,3.8669,3.8628,0,0,0,0,0,3.851,3.8528,3.8544,3.8565,3.8572,3.8583,3.8593,3.8596,3.8609,3.8615,3.8624,3.8636,3.8651,3.8661,3.8675,3.8699,3.8702,3.8709,3.8712,3.8714,3.8715,3.8728,3.8731,3.8696,3.8696,3.8696,0,0,3.8517,3.8531,3.8541,3.8566,3.8577,3.8594,3.8587,3.8605,3.8618,3.8617,3.8638,3.8645,3.8659,3.8682,3.8693,3.8688,3.8726,3.8716,3.8717,3.8718,3.873,3.8733,3.8736,3.8697,3.8697,3.8697,0,0,3.8539,3.8552,3.8571,3.8582,3.8599,3.8606,3.8611,3.8627,3.8633,3.8655,3.8654,3.8668,3.8694,3.8704,3.8712,3.8739,3.8736,3.8743,3.8754,3.8767,3.8769,3.8772,3.878,3.8783,3.8745,3.8745,3.8745,0,3.8545,3.8572,3.858,3.8599,3.8609,3.8611,3.863,3.864,3.866,3.8667,3.8663,3.8695,3.8705,3.873,3.8736,3.8743,3.8748,3.8741,3.8769,3.8771,3.8773,3.8781,3.8785,3.8746,3.8746,3.8746,3.8746,0,3.8579,3.8597,3.861,3.8632,3.8644,3.8662,3.8672,3.8683,3.8686,3.8693,3.8714,3.8726,3.8743,3.8749,3.8751,3.8774,3.8771,3.8768,3.8759,3.8777,3.8785,3.8788,3.8747,3.8746,3.8746,3.8746,0,0,3.8601,3.8628,3.8632,3.8642,3.8661,3.8675,3.8693,3.8711,3.872,3.8734,3.8749,3.8771,3.8769,3.8778,3.8781,3.8792,3.8811,3.8787,3.8787,3.879,3.8836,3.8838,3.8842,3.8811,3.8811,3.8812,3.8835,0,3.8624,3.8658,3.8666,3.8694,3.8711,3.8714,3.8729,3.8742,3.875,3.8764,3.8771,3.8787,3.8782,3.8788,3.8799,3.8807,3.882,3.8805,3.8823,3.8823,3.8818,3.8846,3.8848,3.8869,3.8838,3.8839,3.8839,0,3.8655,3.8671,3.8702,3.872,3.8727,3.8741,3.8758,3.8772,3.8787,3.8791,3.8802,3.8805,3.8822,3.8814,3.8838,3.8827,3.8835,3.884,3.8841,3.8841,3.8831,3.8846,3.8876,3.8878,3.8844,3.8843,3.8843,0,3.8667,3.8697,3.8719,3.8727,3.8748,3.8758,3.8767,3.8781,3.8792,3.8806,3.8813,3.8829,3.8837,3.8849,3.8855,3.8849,3.8878,3.887,3.8881,3.8881,3.8886,3.8885,3.8916,3.8893,3.8893,3.8893,3.8893,0,3.869,3.8709,3.8725,3.8738,3.8758,3.8767,3.8787,3.8795,3.8808,3.8822,3.8825,3.8838,3.8846,3.886,3.8865,3.8884,3.8887,3.889,3.8891,3.889,3.8889,3.8894,3.8892,3.8894,3.8894,3.8894,3.8893,0,3.8706,3.8718,3.8742,3.8761,3.8766,3.8781,3.8796,3.8808,3.8816,3.8834,3.8839,3.8851,3.8867,3.8875,3.8895,3.8898,3.8919,3.8919,3.8914,3.8914,3.8925,3.8923,3.8958,3.8963,3.8938,3.8938,3.8938,0,3.872,3.8735,3.8756,3.8767,3.8777,3.8793,3.8805,3.8814,3.8825,3.8843,3.8853,3.887,3.8884,3.891,3.8919,3.8934,3.8934,3.8946,3.8936,3.8934,3.8933,3.8932,3.8933,3.8947,3.8947,3.8947,3.8947,0,3.8744,3.8749,3.8766,3.8785,3.8798,3.8813,3.8827,3.8836,3.8847,3.8859,3.8877,3.8888,3.8909,3.8925,3.8942,3.8949,3.895,3.8951,3.8954,3.8951,3.8948,3.8949,3.8918,3.8949,3.8949,3.8949,3.8949,3.8949,3.8758,3.8771,3.8788,3.8807,3.8819,3.8833,3.8846,3.8856,3.8872,3.8891,3.8895,3.8913,3.8927,3.8949,3.8958,3.8971,3.8968,3.8973,3.8974,3.8975,3.8975,3.8947,3.8974,3.8974,3.8974,3.8974,3.8974,0,3.8781,3.8792,3.8809,3.8831,3.8845,3.8847,3.8863,3.8874,3.8891,3.8905,3.8919,3.8939,3.8955,3.8967,3.8983,3.8991,3.8992,3.8995,3.8994,3.8995,3.8977,3.8972,3.8994,3.8994,3.8994,3.8994,3.8994,3.8994,3.8794,3.8816,3.8823,3.8851,3.8862,3.8882,3.8891,3.8903,3.8914,3.8937,3.8951,3.8959,3.8971,3.8989,3.9003,3.9006,3.9011,3.9014,3.9017,3.8999,3.8997,3.8995,3.899,3.9015,3.9016,3.9034,3.9034,3.9034]}]]